Powrót do katalogu

STARLINK-36064

AktywnyŁącznośćVLEO
NORAD 66899·PAYLOAD·🇺🇸 United States

Wystrzelony Dec 4, 2025 z Vandenberg Space Force Base

Loading…

Następne Przeloty (najbliższe 24 godziny)

TLE

ŚwieżeSource: CelesTrak SupGP

Epoka: Sep 15, 2026, 04:02 UTC

1 66899C 25283X   26258.16854167 -.00061037  00000+0 -18036-2 0  2585
2 66899  53.1581 220.3535 0001427  90.8684  11.1012 15.34415920    13

Śledź STARLINK-36064 w czasie rzeczywistym z AllMySat

Download on the App Store